VIR105 EGLL-KSEA

Flight info

Callsign VIR105
Flight time N/A
Altitude 36000
Route ULTIB T420 TNT UN57 POL UN601 RIBEL DCT TLA DCT BESGA DCT MATIK/M082F360 DCT 62N010W 66N020W 69N030W 71N040W 72N050W/M082F380 73N060W DCT MEDPA/N0482F380 DCT 71N080W 69N090W 65N100W 59N110W/N0468F400 55N115W 50N120W DCT JAKSN GLASR3
Aircraft A339/H-SADE1E2E3GHIJ3J5M1P2RWXY/LB2D1

Departure

Time 2026-05-01 13:25
Airport London Heathrow Airport (EGLL)

Arrival

Time N/A
Airport Seattle–Tacoma International Airport (KSEA)
Time Latitude Longitude Altitude Speed Heading
2026-05-01 12:52 51.47038 -0.46357 88 ft 0 kts 236°
2026-05-01 13:10 51.47042 -0.46347 88 ft 2 kts 236°
2026-05-01 13:11 51.47051 -0.46327 88 ft 2 kts 238°
2026-05-01 13:11 51.47057 -0.46305 88 ft 2 kts 257°
2026-05-01 13:11 51.47060 -0.46281 88 ft 2 kts 270°
2026-05-01 13:11 51.47058 -0.46257 88 ft 2 kts 284°
2026-05-01 13:12 51.47053 -0.46234 88 ft 2 kts 298°
2026-05-01 13:12 51.47045 -0.46214 88 ft 2 kts 313°
2026-05-01 13:12 51.47035 -0.46200 88 ft 0 kts 325°
2026-05-01 13:12 51.47031 -0.46196 88 ft 0 kts 327°
2026-05-01 13:15 51.47032 -0.46197 88 ft 0 kts 327°
2026-05-01 13:15 51.47043 -0.46208 88 ft 2 kts 326°
2026-05-01 13:16 51.47064 -0.46231 88 ft 4 kts 325°
2026-05-01 13:16 51.47098 -0.46270 88 ft 7 kts 325°
2026-05-01 13:16 51.47148 -0.46325 88 ft 9 kts 326°
2026-05-01 13:17 51.47239 -0.46615 88 ft 11 kts 270°
2026-05-01 13:17 51.47238 -0.46747 88 ft 12 kts 269°
2026-05-01 13:18 51.47180 -0.46865 88 ft 7 kts 181°
2026-05-01 13:18 51.47120 -0.46866 88 ft 9 kts 180°
2026-05-01 13:18 51.47048 -0.46866 88 ft 10 kts 180°
2026-05-01 13:18 51.46973 -0.46865 88 ft 11 kts 180°
2026-05-01 13:19 51.46892 -0.46864 88 ft 11 kts 180°
2026-05-01 13:19 51.46808 -0.46862 88 ft 12 kts 179°
2026-05-01 13:19 51.46746 -0.46984 88 ft 8 kts 270°
2026-05-01 13:20 51.46746 -0.47085 88 ft 9 kts 270°
2026-05-01 13:20 51.46746 -0.47195 88 ft 10 kts 269°
2026-05-01 13:20 51.46745 -0.47318 88 ft 11 kts 270°
2026-05-01 13:21 51.46744 -0.47583 88 ft 12 kts 270°
2026-05-01 13:21 51.46743 -0.47723 88 ft 12 kts 270°
2026-05-01 13:21 51.46743 -0.47869 88 ft 13 kts 270°
2026-05-01 13:21 51.46742 -0.48020 88 ft 13 kts 270°
2026-05-01 13:22 51.46741 -0.48174 88 ft 14 kts 269°
2026-05-01 13:22 51.46740 -0.48331 88 ft 14 kts 270°
2026-05-01 13:22 51.46740 -0.48492 88 ft 13 kts 270°
2026-05-01 13:22 51.46739 -0.48640 88 ft 11 kts 270°
2026-05-01 13:23 51.46704 -0.48736 88 ft 11 kts 199°
2026-05-01 13:23 51.46642 -0.48751 88 ft 8 kts 190°
2026-05-01 13:23 51.46581 -0.48774 88 ft 9 kts 194°
2026-05-01 13:23 51.46514 -0.48768 88 ft 9 kts 154°
2026-05-01 13:24 51.46479 -0.48666 88 ft 13 kts 94°
2026-05-01 13:24 51.46479 -0.48269 88 ft 66 kts 90°
2026-05-01 13:24 51.46482 -0.47225 88 ft 121 kts 90°
2026-05-01 13:25 51.46496 -0.43530 214 ft 197 kts 92°
2026-05-01 13:25 51.46624 -0.41391 887 ft 193 kts 72°
2026-05-01 13:25 51.47346 -0.39597 1502 ft 196 kts 51°
2026-05-01 13:25 51.48246 -0.37959 1974 ft 201 kts 51°
2026-05-01 13:26 51.49200 -0.36213 2235 ft 214 kts 51°
2026-05-01 13:26 51.50194 -0.34359 2487 ft 228 kts 52°
2026-05-01 13:26 51.51251 -0.32355 2763 ft 244 kts 52°
2026-05-01 13:26 51.52338 -0.30155 3042 ft 258 kts 63°
2026-05-01 13:27 51.53044 -0.27450 3391 ft 268 kts 75°
2026-05-01 13:27 51.53574 -0.24592 3941 ft 273 kts 77°
2026-05-01 13:27 51.55022 -0.18933 5105 ft 284 kts 47°
2026-05-01 13:28 51.58678 -0.17320 6225 ft 291 kts 341°
2026-05-01 13:28 51.60368 -0.18962 6762 ft 286 kts 308°
2026-05-01 13:29 51.62770 -0.24064 7847 ft 293 kts 314°
2026-05-01 13:29 51.66092 -0.27955 8995 ft 301 kts 326°
2026-05-01 13:30 51.73466 -0.35039 10785 ft 328 kts 328°
2026-05-01 13:31 51.77528 -0.38960 11353 ft 353 kts 327°
2026-05-01 13:31 51.83943 -0.45166 13013 ft 363 kts 327°
2026-05-01 13:32 51.88296 -0.49396 14090 ft 369 kts 327°
2026-05-01 13:33 51.94966 -0.55896 15694 ft 379 kts 327°
2026-05-01 13:33 51.99506 -0.60327 16775 ft 385 kts 327°
2026-05-01 13:34 52.04117 -0.64845 17803 ft 391 kts 327°
2026-05-01 13:34 52.08792 -0.69441 18826 ft 397 kts 326°
2026-05-01 13:35 52.13531 -0.74107 19818 ft 403 kts 326°
2026-05-01 13:35 52.15935 -0.76476 20305 ft 406 kts 326°
2026-05-01 13:35 52.20758 -0.81243 21225 ft 412 kts 326°
2026-05-01 13:36 52.23233 -0.83694 21698 ft 414 kts 326°
2026-05-01 13:36 52.25666 -0.86106 22145 ft 416 kts 326°
2026-05-01 13:36 52.30645 -0.91046 22995 ft 421 kts 326°
2026-05-01 13:37 52.33159 -0.93547 23393 ft 424 kts 327°
2026-05-01 13:37 52.35651 -0.96031 23798 ft 426 kts 326°
2026-05-01 13:37 52.38200 -0.98576 24210 ft 428 kts 326°
2026-05-01 13:37 52.40743 -1.01118 24592 ft 431 kts 326°
2026-05-01 13:38 52.45867 -1.06255 25339 ft 435 kts 326°
2026-05-01 13:38 52.48427 -1.08826 25701 ft 438 kts 326°
2026-05-01 13:38 52.51017 -1.11428 26066 ft 440 kts 326°
2026-05-01 13:39 52.53627 -1.14055 26418 ft 442 kts 326°
2026-05-01 13:39 52.56237 -1.16685 26748 ft 444 kts 326°
2026-05-01 13:39 52.58862 -1.19331 27071 ft 446 kts 327°
2026-05-01 13:39 52.61504 -1.21998 27404 ft 448 kts 326°
2026-05-01 13:40 52.64175 -1.24699 27740 ft 450 kts 326°
2026-05-01 13:40 52.66820 -1.27380 28049 ft 452 kts 326°
2026-05-01 13:40 52.69499 -1.30098 28361 ft 453 kts 326°
2026-05-01 13:40 52.72202 -1.32843 28673 ft 455 kts 326°
2026-05-01 13:41 52.74888 -1.35573 28975 ft 457 kts 327°
2026-05-01 13:41 52.77567 -1.38303 29264 ft 459 kts 326°
2026-05-01 13:41 52.80271 -1.41063 29544 ft 460 kts 326°
2026-05-01 13:41 52.83013 -1.43868 29818 ft 462 kts 326°
2026-05-01 13:42 52.85764 -1.46687 30092 ft 464 kts 326°
2026-05-01 13:42 52.88492 -1.49489 30356 ft 466 kts 326°
2026-05-01 13:42 52.91217 -1.52291 30607 ft 468 kts 326°
2026-05-01 13:42 52.93980 -1.55137 30865 ft 469 kts 326°
2026-05-01 13:43 52.96759 -1.58006 31127 ft 470 kts 326°
2026-05-01 13:43 52.99521 -1.60859 31386 ft 471 kts 326°
2026-05-01 13:43 53.02318 -1.63681 31634 ft 473 kts 329°
2026-05-01 13:43 53.05192 -1.66258 31882 ft 475 kts 331°
2026-05-01 13:44 53.08198 -1.68593 32127 ft 477 kts 335°
2026-05-01 13:44 53.11283 -1.70652 32367 ft 478 kts 337°
2026-05-01 13:44 53.14399 -1.72592 32584 ft 479 kts 338°
2026-05-01 13:44 53.17479 -1.74479 32809 ft 480 kts 338°
2026-05-01 13:45 53.20624 -1.76409 33076 ft 480 kts 338°
2026-05-01 13:45 53.23742 -1.78331 33389 ft 478 kts 338°
2026-05-01 13:45 53.26840 -1.80252 33718 ft 476 kts 338°
2026-05-01 13:45 53.29909 -1.82163 34027 ft 474 kts 338°
2026-05-01 13:46 53.32966 -1.84072 34307 ft 473 kts 338°
2026-05-01 13:46 53.36057 -1.86008 34532 ft 473 kts 338°
2026-05-01 13:46 53.39101 -1.87918 34703 ft 473 kts 338°
2026-05-01 13:46 53.42182 -1.89854 34855 ft 474 kts 338°
2026-05-01 13:47 53.45273 -1.91799 35019 ft 475 kts 338°
2026-05-01 13:47 53.48357 -1.93743 35180 ft 475 kts 338°
2026-05-01 13:47 53.51445 -1.95693 35349 ft 475 kts 338°
2026-05-01 13:47 53.54523 -1.97639 35500 ft 476 kts 338°
2026-05-01 13:48 53.57622 -1.99601 35646 ft 477 kts 338°
2026-05-01 13:48 53.60721 -2.01568 35786 ft 477 kts 338°
2026-05-01 13:48 53.63793 -2.03520 35936 ft 478 kts 338°
2026-05-01 13:48 53.66906 -2.05502 36074 ft 478 kts 338°
2026-05-01 13:49 53.70003 -2.07478 36100 ft 480 kts 338°
2026-05-01 13:49 53.76212 -2.11474 36104 ft 480 kts 337°
2026-05-01 13:50 53.82378 -2.15695 36105 ft 480 kts 336°
2026-05-01 13:50 53.88561 -2.19945 36103 ft 481 kts 336°
2026-05-01 13:51 53.94730 -2.24173 36100 ft 480 kts 336°
2026-05-01 13:51 54.00887 -2.28408 36098 ft 480 kts 336°
2026-05-01 13:52 54.07052 -2.32652 36098 ft 480 kts 336°
2026-05-01 13:52 54.13236 -2.36924 36099 ft 480 kts 336°
2026-05-01 13:53 54.19382 -2.41188 36104 ft 480 kts 336°
2026-05-01 13:53 54.28649 -2.47647 36106 ft 480 kts 336°
2026-05-01 13:54 54.34791 -2.51947 36102 ft 480 kts 336°
2026-05-01 13:54 54.40925 -2.56254 36099 ft 480 kts 336°
2026-05-01 13:55 54.47111 -2.60538 36098 ft 480 kts 337°
2026-05-01 13:55 54.53297 -2.64817 36092 ft 480 kts 337°
2026-05-01 13:56 54.59474 -2.69119 36093 ft 480 kts 336°
2026-05-01 13:56 54.65607 -2.73412 36094 ft 479 kts 336°
2026-05-01 13:57 54.70769 -2.77040 36092 ft 479 kts 336°
2026-05-01 13:57 54.77910 -2.82074 36088 ft 479 kts 336°
2026-05-01 13:58 54.84068 -2.86432 36084 ft 479 kts 336°
2026-05-01 13:58 54.90210 -2.90792 36086 ft 480 kts 336°
2026-05-01 13:59 54.96375 -2.95183 36085 ft 479 kts 336°
2026-05-01 13:59 55.02531 -2.99585 36083 ft 479 kts 336°
2026-05-01 14:00 55.08636 -3.03962 36081 ft 479 kts 336°
2026-05-01 14:00 55.14800 -3.08387 36077 ft 480 kts 336°
2026-05-01 14:01 55.20937 -3.12794 36076 ft 479 kts 336°
2026-05-01 14:01 55.27073 -3.17227 36078 ft 480 kts 336°
2026-05-01 14:02 55.33208 -3.21682 36079 ft 480 kts 336°
2026-05-01 14:02 55.39378 -3.26183 36078 ft 480 kts 336°
2026-05-01 14:03 55.45517 -3.30674 36074 ft 480 kts 335°
2026-05-01 14:03 55.51662 -3.35188 36077 ft 481 kts 335°
2026-05-01 14:04 55.57796 -3.39707 36074 ft 481 kts 335°
2026-05-01 14:04 55.62915 -3.43491 36077 ft 481 kts 335°
2026-05-01 14:05 55.70107 -3.48824 36078 ft 481 kts 335°
2026-05-01 14:05 55.76230 -3.53382 36073 ft 481 kts 335°
2026-05-01 14:06 55.82374 -3.57970 36075 ft 481 kts 335°
2026-05-01 14:06 55.88514 -3.62570 36079 ft 481 kts 335°
2026-05-01 14:07 55.94667 -3.67198 36082 ft 480 kts 334°
2026-05-01 14:08 56.03838 -3.74124 36076 ft 481 kts 334°
2026-05-01 14:08 56.09973 -3.78776 36068 ft 481 kts 334°
2026-05-01 14:09 56.16140 -3.83473 36065 ft 481 kts 334°
2026-05-01 14:09 56.22266 -3.88153 36064 ft 482 kts 334°
2026-05-01 14:10 56.28423 -3.92870 36063 ft 482 kts 334°
2026-05-01 14:10 56.34529 -3.97565 36063 ft 482 kts 334°
2026-05-01 14:11 56.40707 -4.02334 36061 ft 482 kts 334°
2026-05-01 14:11 56.49881 -4.09447 36057 ft 482 kts 334°
2026-05-01 14:12 56.56050 -4.14253 36056 ft 483 kts 334°
2026-05-01 14:12 56.62208 -4.19064 36055 ft 483 kts 334°
2026-05-01 14:13 56.67302 -4.23059 36055 ft 484 kts 334°
2026-05-01 14:13 56.74471 -4.28701 36053 ft 484 kts 334°
2026-05-01 14:14 56.80626 -4.33563 36052 ft 484 kts 334°
2026-05-01 14:14 56.86777 -4.38439 36052 ft 484 kts 334°
2026-05-01 14:15 56.92916 -4.43322 36048 ft 484 kts 334°
2026-05-01 14:15 56.99088 -4.48251 36046 ft 484 kts 334°
2026-05-01 14:16 57.05209 -4.53156 36043 ft 484 kts 333°
2026-05-01 14:16 57.11398 -4.58134 36041 ft 485 kts 333°
2026-05-01 14:17 57.17532 -4.63084 36042 ft 485 kts 333°
2026-05-01 14:17 57.23682 -4.68067 36042 ft 485 kts 332°
2026-05-01 14:18 57.29847 -4.73080 36040 ft 485 kts 332°
2026-05-01 14:18 57.34958 -4.77252 36042 ft 485 kts 332°
2026-05-01 14:19 57.42176 -4.83163 36042 ft 485 kts 332°
2026-05-01 14:19 57.48317 -4.88211 36044 ft 485 kts 332°
2026-05-01 14:20 57.57496 -4.95793 36042 ft 485 kts 332°
2026-05-01 14:21 57.63638 -5.00890 36039 ft 486 kts 332°
2026-05-01 14:21 57.69807 -5.06027 36039 ft 485 kts 332°
2026-05-01 14:22 57.78990 -5.13713 36037 ft 485 kts 332°
2026-05-01 14:22 57.85136 -5.18879 36037 ft 484 kts 332°
2026-05-01 14:23 57.91256 -5.24046 36036 ft 485 kts 332°
2026-05-01 14:23 57.97356 -5.29210 36034 ft 485 kts 332°
2026-05-01 14:24 58.03471 -5.34408 36032 ft 484 kts 331°
2026-05-01 14:24 58.09569 -5.39614 36039 ft 484 kts 331°
2026-05-01 14:25 58.15715 -5.44881 36040 ft 484 kts 331°
2026-05-01 14:25 58.21796 -5.50112 36034 ft 484 kts 331°
2026-05-01 14:26 58.30948 -5.58017 36034 ft 485 kts 331°
2026-05-01 14:27 58.37072 -5.63334 36039 ft 484 kts 331°
2026-05-01 14:27 58.43173 -5.68651 36041 ft 483 kts 330°
2026-05-01 14:28 58.52290 -5.76633 36034 ft 484 kts 330°
2026-05-01 14:28 58.58365 -5.81977 36037 ft 483 kts 330°
2026-05-01 14:29 58.64475 -5.87376 36041 ft 484 kts 330°
2026-05-01 14:30 58.76600 -5.98147 36034 ft 483 kts 330°
2026-05-01 14:31 58.85723 -6.06306 36037 ft 483 kts 330°
2026-05-01 14:31 58.91769 -6.11742 36037 ft 483 kts 329°
2026-05-01 14:32 58.97870 -6.17246 36038 ft 483 kts 329°
2026-05-01 14:32 59.03923 -6.22727 36039 ft 483 kts 329°
2026-05-01 14:33 59.09965 -6.28223 36038 ft 483 kts 329°
2026-05-01 14:33 59.16040 -6.33765 36026 ft 483 kts 329°
2026-05-01 14:34 59.22096 -6.39317 36029 ft 484 kts 329°
2026-05-01 14:34 59.28168 -6.44905 36023 ft 483 kts 329°
2026-05-01 14:35 59.34208 -6.50485 36026 ft 483 kts 329°
2026-05-01 14:35 59.40233 -6.56070 36026 ft 482 kts 329°
2026-05-01 14:36 59.46288 -6.61710 36022 ft 482 kts 329°
2026-05-01 14:36 59.52323 -6.67351 36027 ft 482 kts 328°
2026-05-01 14:37 59.58340 -6.72998 36028 ft 482 kts 328°
2026-05-01 14:37 59.64378 -6.78689 36017 ft 482 kts 328°
2026-05-01 14:38 59.70381 -6.84366 36001 ft 482 kts 327°
2026-05-01 14:38 59.76403 -6.90087 36012 ft 483 kts 327°
2026-05-01 14:39 59.82424 -6.95834 36000 ft 483 kts 328°
2026-05-01 14:39 59.88453 -7.01604 35996 ft 483 kts 328°
2026-05-01 14:40 59.94486 -7.07407 36012 ft 484 kts 328°
2026-05-01 14:40 60.00511 -7.13219 36012 ft 482 kts 327°
2026-05-01 14:41 60.06527 -7.19051 35992 ft 483 kts 327°
2026-05-01 14:41 60.12534 -7.24895 35991 ft 481 kts 327°
2026-05-01 14:42 60.18511 -7.30738 35982 ft 481 kts 327°
2026-05-01 14:42 60.24475 -7.36592 35987 ft 481 kts 327°
2026-05-01 14:43 60.30444 -7.42474 35992 ft 480 kts 327°
2026-05-01 14:43 60.36427 -7.48393 35988 ft 480 kts 327°
2026-05-01 14:44 60.42374 -7.54303 35983 ft 480 kts 327°
2026-05-01 14:44 60.51316 -7.63231 35991 ft 478 kts 327°
2026-05-01 14:45 60.60197 -7.72158 35989 ft 477 kts 326°
2026-05-01 14:46 60.66134 -7.78156 35984 ft 477 kts 326°
2026-05-01 14:46 60.74961 -7.87125 35976 ft 475 kts 326°
2026-05-01 14:47 60.80980 -7.92642 35980 ft 481 kts 332°
2026-05-01 14:48 60.90432 -7.99607 35977 ft 482 kts 332°
2026-05-01 14:48 60.99355 -8.08242 35962 ft 469 kts 321°
2026-05-01 14:49 61.09524 -8.24180 35970 ft 456 kts 310°
2026-05-01 14:50 61.18858 -8.41715 36201 ft 457 kts 310°
2026-05-01 14:51 61.21208 -8.46141 35838 ft 454 kts 310°
2026-05-01 14:51 61.25841 -8.54880 36046 ft 454 kts 310°
2026-05-01 14:52 61.32803 -8.68082 35939 ft 452 kts 310°
2026-05-01 14:53 61.39738 -8.81310 35921 ft 451 kts 309°
2026-05-01 14:53 61.44317 -8.90096 35931 ft 451 kts 309°
2026-05-01 14:54 61.48901 -8.98921 35922 ft 450 kts 310°
2026-05-01 14:54 61.53484 -9.07785 35936 ft 450 kts 310°
2026-05-01 14:55 61.58058 -9.16665 35943 ft 450 kts 310°
2026-05-01 14:55 61.62607 -9.25536 35927 ft 449 kts 310°
2026-05-01 14:56 61.67152 -9.34439 35939 ft 450 kts 310°
2026-05-01 14:56 61.71707 -9.43395 35924 ft 449 kts 310°
2026-05-01 14:57 61.76237 -9.52342 35919 ft 448 kts 310°
2026-05-01 14:57 61.82988 -9.65745 35927 ft 447 kts 309°
2026-05-01 14:58 61.87490 -9.74736 35922 ft 446 kts 309°
2026-05-01 14:58 61.91987 -9.83754 35913 ft 446 kts 309°
2026-05-01 14:59 61.96468 -9.92778 35915 ft 447 kts 309°
2026-05-01 14:59 62.00948 -10.01831 35916 ft 446 kts 310°
2026-05-01 15:00 62.07679 -10.15319 35905 ft 446 kts 310°
2026-05-01 15:01 62.12191 -10.24412 35901 ft 446 kts 310°
2026-05-01 15:01 62.16663 -10.33477 35888 ft 446 kts 310°
2026-05-01 15:02 62.21140 -10.42593 35889 ft 447 kts 310°
2026-05-01 15:02 62.25594 -10.51702 35892 ft 446 kts 310°
2026-05-01 15:03 62.30078 -10.60909 35888 ft 447 kts 310°
2026-05-01 15:03 62.34537 -10.70108 35898 ft 445 kts 309°
2026-05-01 15:04 62.38954 -10.79256 35893 ft 445 kts 309°
2026-05-01 15:04 62.43399 -10.88509 35888 ft 445 kts 309°
2026-05-01 15:05 62.47842 -10.97793 35889 ft 445 kts 309°
2026-05-01 15:05 62.52265 -11.07076 35886 ft 446 kts 309°
2026-05-01 15:06 62.56676 -11.16378 35901 ft 445 kts 309°
2026-05-01 15:06 62.61091 -11.25727 35899 ft 446 kts 309°
2026-05-01 15:07 62.65485 -11.35078 35894 ft 445 kts 309°
2026-05-01 15:07 62.69874 -11.44459 35887 ft 447 kts 310°
2026-05-01 15:08 62.74288 -11.53921 35902 ft 447 kts 309°
2026-05-01 15:08 62.78677 -11.63377 35892 ft 447 kts 309°
2026-05-01 15:09 62.83092 -11.72940 35903 ft 445 kts 309°
2026-05-01 15:09 62.87467 -11.82455 35900 ft 445 kts 309°
2026-05-01 15:10 62.91838 -11.92001 35888 ft 444 kts 309°
2026-05-01 15:10 62.98347 -12.06293 35885 ft 445 kts 309°
2026-05-01 15:11 63.04876 -12.20729 35887 ft 445 kts 309°
2026-05-01 15:12 63.09222 -12.30395 35887 ft 446 kts 309°
2026-05-01 15:12 63.15743 -12.44984 35888 ft 446 kts 309°
2026-05-01 15:14 63.26552 -12.69372 35899 ft 446 kts 309°
2026-05-01 15:14 63.33027 -12.84114 35903 ft 446 kts 309°
2026-05-01 15:15 63.41616 -13.03828 35910 ft 446 kts 309°
2026-05-01 15:16 63.50178 -13.23665 35905 ft 445 kts 309°
2026-05-01 15:18 63.60836 -13.48612 35913 ft 446 kts 309°
2026-05-01 15:19 63.69340 -13.68723 35913 ft 445 kts 308°
2026-05-01 15:19 63.75706 -13.83907 35926 ft 445 kts 308°
2026-05-01 15:20 63.82011 -13.99052 35935 ft 445 kts 309°
2026-05-01 15:21 63.86242 -14.09269 35938 ft 445 kts 309°
2026-05-01 15:21 63.90424 -14.19414 35942 ft 444 kts 309°
2026-05-01 15:22 63.96704 -14.34747 35944 ft 444 kts 309°
2026-05-01 15:22 64.00880 -14.45006 35933 ft 443 kts 309°
2026-05-01 15:23 64.05051 -14.55297 35936 ft 444 kts 309°
2026-05-01 15:23 64.09216 -14.65620 35943 ft 444 kts 308°
2026-05-01 15:24 64.13369 -14.75965 35937 ft 444 kts 308°
2026-05-01 15:24 64.17536 -14.86387 35939 ft 444 kts 308°
2026-05-01 15:25 64.21656 -14.96748 35940 ft 444 kts 308°
2026-05-01 15:25 64.25780 -15.07171 35950 ft 443 kts 308°
2026-05-01 15:26 64.29919 -15.17677 35943 ft 444 kts 308°
2026-05-01 15:26 64.34029 -15.28159 35939 ft 443 kts 308°
2026-05-01 15:27 64.38133 -15.38681 35928 ft 443 kts 308°
2026-05-01 15:28 64.44283 -15.54534 35909 ft 443 kts 308°
2026-05-01 15:28 64.48357 -15.65109 35857 ft 442 kts 307°
2026-05-01 15:29 64.54437 -15.80980 35783 ft 440 kts 308°
2026-05-01 15:30 64.62514 -16.02244 35760 ft 441 kts 308°
2026-05-01 15:31 64.74553 -16.34325 35814 ft 440 kts 308°
2026-05-01 15:32 64.82535 -16.55852 35851 ft 438 kts 308°
2026-05-01 15:34 64.94385 -16.88222 35836 ft 435 kts 307°